Regional Weather Roundup
Issued by NWS

Home | Current Version | Previous Version | Graphics & Text | Print | Product List | Glossary On
Versions: 1 2 3 4 5 6 7 8 9 10 11 12 13 14 15 16 17 18 19 20 21 22 23 24 25 26 27 28 29 30 31 32 33 34 35 36 37 38 39 40 41 42 43 44 45 46 47 48 49 50
752
ASUS44 KJAN 160403
RWRMS

MISSISSIPPI HOURLY WEATHER ROUNDUP
NATIONAL WEATHER SERVICE JACKSON MS
1100 PM CDT TUE APR 15 2014

NOTE: "FAIR: INDICATES FEW OR NO CLOUDS BELOW 12,000 FEET WITH NO
SIGNIFICANT WEATHER AND/OR OBSTRUCTIONS TO VISIBILITY.

MSZ001>002-007>008-010>013-018>021-025>028-034>036-160500-
NORTHWEST MISSISSIPPI

CITY           SKY/WX    TMP DP  RH WIND       PRES   REMARKS
CLARKSDALE       N/A     43  32  65 CALM      30.28R
CLEVELAND      FAIR      42  37  83 E3        30.26F
GREENWOOD      CLEAR     38  34  85 N3        30.26F
GREENVILLE     CLEAR     45  33  63 E6        30.25F
GRENADA        FAIR      36  32  87 N3        30.28S
OLIVE BRANCH   CLEAR     36  30  80 CALM      30.26S
OXFORD         FAIR      32  28  86 CALM      30.28S
TUNICA         CLEAR     39  32  75 SE5       30.28R
$$

MSZ003>006-009-014>017-022>024-029>033-037>039-160500-
NORTHEAST MISSISSIPPI

CITY           SKY/WX    TMP DP  RH WIND       PRES   REMARKS
BELMONT        FAIR      38  28  67 CALM      30.25R
COLUMBUS AFB   CLEAR     40  31  71 N6        30.25R
CORINTH        FAIR      36  32  87 W3        30.25S
GOLDN TRIANGLE CLEAR     39  28  65 N7        30.27S WCI  34
STARKVILLE     FAIR      37  32  81 CALM      30.25S
TUPELO         CLEAR     40  26  57 CALM      30.25S
$$

MSZ040-058-160500-
CENTRAL MISSISSIPPI

CITY           SKY/WX    TMP DP  RH WIND       PRES   REMARKS
JACKSON INTL   CLEAR     42  33  70 N8        30.23F
JACKSON HAWKNS CLEAR     44  31  60 N8        30.24S
MERIDIAN KEY   CLEAR     40  35  83 N5        30.22S
MERIDIAN NAS   CLEAR     40  31  70 N5        30.23S
RAYMOND        FAIR      39  36  87 CALM      30.24F
VICKSBURG      CLEAR     46  37  71 NE7       30.25S
$$

MSZ059>079-160500-
SOUTH MISSISSIPPI

CITY           SKY/WX    TMP DP  RH WIND       PRES   REMARKS
BROOKHAVEN     FAIR      43  32  65 CALM      30.23S
COLUMBIA       FAIR      41  34  75 MISG      30.21S
HATTIESBURG    CLEAR     45  34  65 NW6       30.22R
MCCOMB         CLEAR     40  33  76 N6        30.22R
NATCHEZ          N/A     39  36  87 NE3       30.22S
PINE BELT      CLEAR     45  30  57 NW9       30.21S
$$

MSZ080>082-160500-
COASTAL MISSISSIPPI

CITY           SKY/WX    TMP DP  RH WIND       PRES   REMARKS
BILOXI         CLEAR     49  35  57 N9        30.18S
PASCAGOULA     CLEAR     46  35  65 N8        30.18S
GULFPORT       CLEAR     49  34  56 NW8       30.18S
$$



USA.gov is the U.S. government's official web portal to all federal, state and local government web resources and services.